Time,TemperatureF,DewpointF,PressureIn,WindDirection,WindDirectionDegrees,WindSpeedMPH,WindSpeedGustMPH,Humidity,HourlyPrecipIn,Conditions,Clouds,dailyrainin,SoftwareType,DateUTC
2013-02-11 00:00:00,25.6,23.3,29.68,WSW,249,10.0,16.0,91,0.00,,,0.00,WeatherCatV1.10B1784,2013-02-11 06:00:00,
2013-02-11 00:05:00,25.6,23.3,29.69,WNW,294,7.0,13.0,91,0.00,,,0.00,WeatherCatV1.10B1784,2013-02-11 06:05:00,
2013-02-11 00:10:00,25.6,23.3,29.70,West,262,9.0,16.0,91,0.00,,,0.00,WeatherCatV1.10B1784,2013-02-11 06:10:00,
2013-02-11 00:15:00,25.5,23.2,29.69,NW,314,3.0,18.0,91,0.00,,,0.00,WeatherCatV1.10B1784,2013-02-11 06:15:00,
2013-02-11 00:20:00,25.5,23.0,29.70,WNW,295,7.0,10.0,90,0.00,,,0.00,WeatherCatV1.10B1784,2013-02-11 06:20:00,
2013-02-11 00:25:00,25.4,22.9,29.71,SW,235,8.0,13.0,90,0.00,,,0.00,WeatherCatV1.10B1784,2013-02-11 06:25:00,
2013-02-11 00:30:00,25.4,22.9,29.71,NW,326,9.0,15.0,90,0.00,,,0.00,WeatherCatV1.10B1784,2013-02-11 06:30:00,
2013-02-11 00:35:00,25.3,22.8,29.71,NW,305,3.0,12.0,90,0.00,,,0.00,WeatherCatV1.10B1784,2013-02-11 06:35:00,
2013-02-11 00:40:00,25.2,22.7,29.71,WSW,258,6.0,17.0,90,0.00,,,0.00,WeatherCatV1.10B1784,2013-02-11 06:40:00,
2013-02-11 00:45:00,25.2,22.7,29.72,NNW,339,9.0,19.0,90,0.00,,,0.00,WeatherCatV1.10B1784,2013-02-11 06:45:00,
2013-02-11 00:50:00,25.2,22.7,29.72,WNW,291,4.0,11.0,90,0.00,,,0.00,WeatherCatV1.10B1784,2013-02-11 06:50:00,
2013-02-11 00:55:00,25.2,22.7,29.72,West,278,3.0,13.0,90,0.00,,,0.00,WeatherCatV1.10B1784,2013-02-11 06:55:00,
2013-02-11 01:00:00,25.1,22.6,29.73,NNW,328,5.0,18.0,90,0.00,,,0.00,WeatherCatV1.10B1784,2013-02-11 07:00:00,
2013-02-11 01:05:00,25.0,22.5,29.73,West,276,6.0,16.0,90,0.00,,,0.00,WeatherCatV1.10B1784,2013-02-11 07:05:00,
2013-02-11 01:10:00,24.9,22.4,29.74,West,278,10.0,12.0,90,0.00,,,0.00,WeatherCatV1.10B1784,2013-02-11 07:10:00,
2013-02-11 01:15:00,24.9,22.4,29.73,WNW,301,8.0,16.0,90,0.00,,,0.00,WeatherCatV1.10B1784,2013-02-11 07:15:00,
2013-02-11 01:20:00,24.8,22.3,29.74,WSW,255,7.0,12.0,90,0.00,,,0.00,WeatherCatV1.10B1784,2013-02-11 07:20:00,
2013-02-11 01:25:00,24.8,22.0,29.74,North,352,7.0,17.0,89,0.00,,,0.00,WeatherCatV1.10B1784,2013-02-11 07:25:00,
2013-02-11 01:30:00,24.7,21.9,29.75,WNW,298,3.0,13.0,89,0.00,,,0.00,WeatherCatV1.10B1784,2013-02-11 07:30:00,
2013-02-11 01:35:00,24.6,21.8,29.75,West,268,5.0,10.0,89,0.00,,,0.00,WeatherCatV1.10B1784,2013-02-11 07:35:00,
2013-02-11 01:40:00,24.5,21.7,29.76,West,279,7.0,13.0,89,0.00,,,0.00,WeatherCatV1.10B1784,2013-02-11 07:40:00,
2013-02-11 01:45:00,24.5,21.7,29.76,West,274,11.0,16.0,89,0.00,,,0.00,WeatherCatV1.10B1784,2013-02-11 07:45:00,
2013-02-11 01:50:00,24.4,21.6,29.77,WNW,297,4.0,12.0,89,0.00,,,0.00,WeatherCatV1.10B1784,2013-02-11 07:50:00,
2013-02-11 01:55:00,24.3,21.8,29.77,SE,135,5.0,11.0,90,0.00,,,0.00,WeatherCatV1.10B1784,2013-02-11 07:55:00,
2013-02-11 02:00:00,24.2,21.4,29.77,WNW,297,16.0,16.0,89,0.00,,,0.00,WeatherCatV1.10B1784,2013-02-11 08:00:00,
2013-02-11 02:05:00,24.2,21.4,29.78,NNW,327,12.0,13.0,89,0.00,,,0.00,WeatherCatV1.10B1784,2013-02-11 08:05:00,
2013-02-11 02:10:00,24.2,21.7,29.78,WNW,300,5.0,14.0,90,0.00,,,0.00,WeatherCatV1.10B1784,2013-02-11 08:10:00,
2013-02-11 02:15:00,24.2,21.7,29.78,WSW,256,5.0,12.0,90,0.00,,,0.00,WeatherCatV1.10B1784,2013-02-11 08:15:00,
2013-02-11 02:20:00,24.0,21.2,29.79,WNW,282,10.0,17.0,89,0.00,,,0.00,WeatherCatV1.10B1784,2013-02-11 08:20:00,
2013-02-11 02:25:00,23.9,21.1,29.80,North,349,6.0,11.0,89,0.00,,,0.00,WeatherCatV1.10B1784,2013-02-11 08:25:00,
2013-02-11 02:30:00,23.8,21.0,29.80,West,281,5.0,13.0,89,0.00,,,0.00,WeatherCatV1.10B1784,2013-02-11 08:30:00,
2013-02-11 02:35:00,23.8,21.0,29.80,NW,312,4.0,11.0,89,0.00,,,0.00,WeatherCatV1.10B1784,2013-02-11 08:35:00,
2013-02-11 02:40:00,23.6,20.6,29.81,WNW,299,4.0,15.0,88,0.00,,,0.00,WeatherCatV1.10B1784,2013-02-11 08:40:00,
2013-02-11 02:45:00,23.6,20.6,29.81,West,274,6.0,13.0,88,0.00,,,0.00,WeatherCatV1.10B1784,2013-02-11 08:45:00,
2013-02-11 02:50:00,23.5,20.5,29.81,NNW,334,6.0,13.0,88,0.00,,,0.00,WeatherCatV1.10B1784,2013-02-11 08:50:00,
2013-02-11 02:55:00,23.6,20.8,29.81,WNW,287,5.0,14.0,89,0.00,,,0.00,WeatherCatV1.10B1784,2013-02-11 08:55:00,
2013-02-11 03:00:00,23.6,20.8,29.82,NW,320,10.0,17.0,89,0.00,,,0.00,WeatherCatV1.10B1784,2013-02-11 09:00:00,
2013-02-11 03:05:00,23.4,20.4,29.82,West,275,4.0,15.0,88,0.00,,,0.00,WeatherCatV1.10B1784,2013-02-11 09:05:00,
2013-02-11 03:10:00,23.2,20.4,29.83,NW,318,9.0,13.0,89,0.00,,,0.00,WeatherCatV1.10B1784,2013-02-11 09:10:00,
2013-02-11 03:15:00,23.1,20.4,29.83,West,278,11.0,11.0,89,0.00,,,0.00,WeatherCatV1.10B1784,2013-02-11 09:15:00,
2013-02-11 03:20:00,23.1,20.4,29.83,WNW,282,4.0,15.0,89,0.00,,,0.00,WeatherCatV1.10B1784,2013-02-11 09:20:00,
2013-02-11 03:25:00,23.1,20.1,29.84,West,278,6.0,12.0,88,0.00,,,0.00,WeatherCatV1.10B1784,2013-02-11 09:25:00,
2013-02-11 03:30:00,23.0,20.0,29.84,West,266,11.0,15.0,88,0.00,,,0.00,WeatherCatV1.10B1784,2013-02-11 09:30:00,
2013-02-11 03:35:00,22.9,19.6,29.84,NW,320,7.0,9.0,87,0.00,,,0.00,WeatherCatV1.10B1784,2013-02-11 09:35:00,
2013-02-11 03:40:00,22.8,19.5,29.84,WNW,299,10.0,13.0,87,0.00,,,0.00,WeatherCatV1.10B1784,2013-02-11 09:40:00,
2013-02-11 03:45:00,22.7,19.4,29.85,NW,310,8.0,14.0,87,0.00,,,0.00,WeatherCatV1.10B1784,2013-02-11 09:45:00,
2013-02-11 03:50:00,22.6,19.3,29.85,WNW,303,5.0,14.0,87,0.00,,,0.00,WeatherCatV1.10B1784,2013-02-11 09:50:00,
2013-02-11 03:55:00,22.5,19.2,29.85,West,264,5.0,12.0,87,0.00,,,0.00,WeatherCatV1.10B1784,2013-02-11 09:55:00,
2013-02-11 04:00:00,22.4,19.4,29.86,WNW,286,4.0,13.0,88,0.00,,,0.00,WeatherCatV1.10B1784,2013-02-11 10:00:00,
2013-02-11 04:05:00,22.3,19.0,29.86,WSW,247,13.0,14.0,87,0.00,,,0.00,WeatherCatV1.10B1784,2013-02-11 10:05:00,
2013-02-11 04:10:00,22.3,19.0,29.86,WNW,298,8.0,11.0,87,0.00,,,0.00,WeatherCatV1.10B1784,2013-02-11 10:10:00,
2013-02-11 04:15:00,22.3,19.0,29.86,West,274,9.0,14.0,87,0.00,,,0.00,WeatherCatV1.10B1784,2013-02-11 10:15:00,
2013-02-11 04:20:00,22.4,19.1,29.87,WNW,286,6.0,15.0,87,0.00,,,0.00,WeatherCatV1.10B1784,2013-02-11 10:20:00,
2013-02-11 04:25:00,22.4,19.1,29.87,WNW,285,12.0,12.0,87,0.00,,,0.00,WeatherCatV1.10B1784,2013-02-11 10:25:00,
2013-02-11 04:30:00,22.4,18.9,29.87,WNW,293,6.0,10.0,86,0.00,,,0.00,WeatherCatV1.10B1784,2013-02-11 10:30:00,
2013-02-11 04:35:00,22.3,18.8,29.88,West,270,6.0,13.0,86,0.00,,,0.00,WeatherCatV1.10B1784,2013-02-11 10:35:00,
2013-02-11 04:40:00,22.3,18.8,29.88,West,281,9.0,13.0,86,0.00,,,0.00,WeatherCatV1.10B1784,2013-02-11 10:40:00,
2013-02-11 04:45:00,22.3,18.8,29.89,NW,309,11.0,12.0,86,0.00,,,0.00,WeatherCatV1.10B1784,2013-02-11 10:45:00,
2013-02-11 04:50:00,22.3,18.8,29.89,WNW,289,6.0,12.0,86,0.00,,,0.00,WeatherCatV1.10B1784,2013-02-11 10:50:00,
2013-02-11 04:55:00,22.4,18.9,29.90,West,279,9.0,11.0,86,0.00,,,0.00,WeatherCatV1.10B1784,2013-02-11 10:55:00,
2013-02-11 05:00:00,22.5,18.7,29.90,NNW,347,6.0,12.0,85,0.00,,,0.00,WeatherCatV1.10B1784,2013-02-11 11:00:00,
2013-02-11 05:05:00,22.5,19.0,29.90,West,275,9.0,10.0,86,0.00,,,0.00,WeatherCatV1.10B1784,2013-02-11 11:05:00,
2013-02-11 05:10:00,22.5,19.0,29.90,West,274,5.0,11.0,86,0.00,,,0.00,WeatherCatV1.10B1784,2013-02-11 11:10:00,
2013-02-11 05:15:00,22.4,18.9,29.91,West,279,5.0,15.0,86,0.00,,,0.00,WeatherCatV1.10B1784,2013-02-11 11:15:00,
2013-02-11 05:20:00,22.4,18.9,29.91,NW,305,9.0,12.0,86,0.00,,,0.00,WeatherCatV1.10B1784,2013-02-11 11:20:00,
2013-02-11 05:25:00,22.4,18.9,29.91,NW,304,6.0,13.0,86,0.00,,,0.00,WeatherCatV1.10B1784,2013-02-11 11:25:00,
2013-02-11 05:30:00,22.3,18.8,29.92,West,272,9.0,11.0,86,0.00,,,0.00,WeatherCatV1.10B1784,2013-02-11 11:30:00,
2013-02-11 05:35:00,22.2,18.7,29.92,West,281,5.0,11.0,86,0.00,,,0.00,WeatherCatV1.10B1784,2013-02-11 11:35:00,
2013-02-11 05:40:00,22.3,18.8,29.92,NW,309,3.0,11.0,86,0.00,,,0.00,WeatherCatV1.10B1784,2013-02-11 11:40:00,
2013-02-11 05:45:00,22.4,18.9,29.93,NW,309,2.0,13.0,86,0.00,,,0.00,WeatherCatV1.10B1784,2013-02-11 11:45:00,
2013-02-11 05:50:00,22.4,18.9,29.93,WNW,290,9.0,16.0,86,0.00,,,0.00,WeatherCatV1.10B1784,2013-02-11 11:50:00,
2013-02-11 05:55:00,22.4,18.9,29.93,NW,318,3.0,13.0,86,0.00,,,0.00,WeatherCatV1.10B1784,2013-02-11 11:55:00,
2013-02-11 06:00:00,22.4,18.9,29.93,NW,322,9.0,12.0,86,0.00,,,0.00,WeatherCatV1.10B1784,2013-02-11 12:00:00,
2013-02-11 06:05:00,22.4,18.9,29.94,West,272,6.0,10.0,86,0.00,,,0.00,WeatherCatV1.10B1784,2013-02-11 12:05:00,
2013-02-11 06:10:00,22.4,18.9,29.94,NW,306,7.0,17.0,86,0.00,,,0.00,WeatherCatV1.10B1784,2013-02-11 12:10:00,
2013-02-11 06:15:00,22.3,18.8,29.94,WNW,287,8.0,10.0,86,0.00,,,0.00,WeatherCatV1.10B1784,2013-02-11 12:15:00,
2013-02-11 06:20:00,22.3,19.0,29.94,WNW,289,13.0,13.0,87,0.00,,,0.00,WeatherCatV1.10B1784,2013-02-11 12:20:00,
2013-02-11 06:25:00,22.2,18.9,29.95,WSW,257,7.0,13.0,87,0.00,,,0.00,WeatherCatV1.10B1784,2013-02-11 12:25:00,
2013-02-11 06:30:00,22.2,18.9,29.95,WSW,256,9.0,10.0,87,0.00,,,0.00,WeatherCatV1.10B1784,2013-02-11 12:30:00,
2013-02-11 06:35:00,22.2,18.9,29.95,WNW,283,5.0,14.0,87,0.00,,,0.00,WeatherCatV1.10B1784,2013-02-11 12:35:00,
2013-02-11 06:40:00,22.2,18.9,29.95,WNW,295,6.0,13.0,87,0.00,,,0.00,WeatherCatV1.10B1784,2013-02-11 12:40:00,
2013-02-11 06:45:00,22.1,19.1,29.96,NNW,343,9.0,19.0,88,0.00,,,0.00,WeatherCatV1.10B1784,2013-02-11 12:45:00,
2013-02-11 06:50:00,22.1,19.1,29.96,NW,307,5.0,9.0,88,0.00,,,0.00,WeatherCatV1.10B1784,2013-02-11 12:50:00,
2013-02-11 06:55:00,22.2,19.2,29.96,WNW,283,5.0,9.0,88,0.00,,,0.00,WeatherCatV1.10B1784,2013-02-11 12:55:00,
2013-02-11 07:00:00,22.2,19.2,29.96,West,281,7.0,13.0,88,0.00,,,0.00,WeatherCatV1.10B1784,2013-02-11 13:00:00,
2013-02-11 07:05:00,22.2,18.9,29.97,NW,307,8.0,10.0,87,0.00,,,0.00,WeatherCatV1.10B1784,2013-02-11 13:05:00,
2013-02-11 07:10:00,22.2,18.9,29.97,West,272,8.0,15.0,87,0.00,,,0.00,WeatherCatV1.10B1784,2013-02-11 13:10:00,
2013-02-11 07:15:00,22.2,18.9,29.97,WNW,297,16.0,16.0,87,0.00,,,0.00,WeatherCatV1.10B1784,2013-02-11 13:15:00,
2013-02-11 07:20:00,22.2,18.9,29.97,WNW,284,2.0,15.0,87,0.00,,,0.00,WeatherCatV1.10B1784,2013-02-11 13:20:00,
2013-02-11 07:24:00,22.3,19.0,29.98,NW,315,12.0,12.0,87,0.00,,,0.00,WeatherCatV1.10B1784,2013-02-11 13:24:00,
2013-02-11 07:29:00,22.3,19.0,29.98,WNW,295,7.0,9.0,87,0.00,,,0.00,WeatherCatV1.10B1784,2013-02-11 13:29:00,
2013-02-11 07:34:00,22.3,19.3,29.98,West,267,5.0,6.0,88,0.00,,,0.00,WeatherCatV1.10B1784,2013-02-11 13:34:00,
2013-02-11 07:39:00,22.3,19.3,29.99,NW,310,6.0,8.0,88,0.00,,,0.00,WeatherCatV1.10B1784,2013-02-11 13:39:00,
2013-02-11 07:44:00,22.4,19.4,29.99,WSW,241,4.0,13.0,88,0.00,,,0.00,WeatherCatV1.10B1784,2013-02-11 13:44:00,
2013-02-11 07:49:00,22.4,19.4,29.99,WNW,282,3.0,7.0,88,0.00,,,0.00,WeatherCatV1.10B1784,2013-02-11 13:49:00,
2013-02-11 07:54:00,22.4,19.4,29.99,WNW,299,4.0,11.0,88,0.00,,,0.00,WeatherCatV1.10B1784,2013-02-11 13:54:00,
2013-02-11 07:59:00,22.4,19.4,30.00,NNW,328,8.0,11.0,88,0.00,,,0.00,WeatherCatV1.10B1784,2013-02-11 13:59:00,
2013-02-11 08:04:00,22.5,19.5,30.00,WNW,297,15.0,15.0,88,0.00,,,0.00,WeatherCatV1.10B1784,2013-02-11 14:04:00,
2013-02-11 08:09:00,22.5,19.2,30.00,West,266,2.0,11.0,87,0.00,,,0.00,WeatherCatV1.10B1784,2013-02-11 14:09:00,
2013-02-11 08:14:00,22.5,19.2,30.00,West,275,7.0,14.0,87,0.00,,,0.00,WeatherCatV1.10B1784,2013-02-11 14:14:00,
2013-02-11 08:19:00,22.6,19.3,30.01,WNW,286,5.0,10.0,87,0.00,,,0.00,WeatherCatV1.10B1784,2013-02-11 14:19:00,
2013-02-11 08:24:00,22.6,19.3,30.01,West,270,7.0,9.0,87,0.00,,,0.00,WeatherCatV1.10B1784,2013-02-11 14:24:00,
2013-02-11 08:29:00,22.6,19.6,30.01,West,261,5.0,9.0,88,0.00,,,0.00,WeatherCatV1.10B1784,2013-02-11 14:29:00,
2013-02-11 08:34:00,22.6,19.6,30.01,NW,307,6.0,8.0,88,0.00,,,0.00,WeatherCatV1.10B1784,2013-02-11 14:34:00,
2013-02-11 08:39:00,22.7,19.7,30.01,NW,307,5.0,13.0,88,0.00,,,0.00,WeatherCatV1.10B1784,2013-02-11 14:39:00,
2013-02-11 08:44:00,22.7,19.4,30.02,West,276,7.0,9.0,87,0.00,,,0.00,WeatherCatV1.10B1784,2013-02-11 14:44:00,
2013-02-11 08:49:00,22.7,19.4,30.02,NNW,327,5.0,12.0,87,0.00,,,0.00,WeatherCatV1.10B1784,2013-02-11 14:49:00,
2013-02-11 08:54:00,22.7,19.4,30.02,North,10,2.0,6.0,87,0.00,,,0.00,WeatherCatV1.10B1784,2013-02-11 14:54:00,
2013-02-11 08:59:00,22.8,19.5,30.02,West,271,4.0,9.0,87,0.00,,,0.00,WeatherCatV1.10B1784,2013-02-11 14:59:00,
2013-02-11 09:04:00,22.8,19.5,30.02,WNW,300,3.0,10.0,87,0.00,,,0.00,WeatherCatV1.10B1784,2013-02-11 15:04:00,
2013-02-11 09:09:00,22.9,19.6,30.03,NW,315,6.0,14.0,87,0.00,,,0.00,WeatherCatV1.10B1784,2013-02-11 15:09:00,
2013-02-11 09:14:00,22.9,19.6,30.03,NNW,339,6.0,7.0,87,0.00,,,0.00,WeatherCatV1.10B1784,2013-02-11 15:14:00,
2013-02-11 09:19:00,23.0,19.7,30.03,North,10,7.0,11.0,87,0.00,,,0.00,WeatherCatV1.10B1784,2013-02-11 15:19:00,
2013-02-11 09:24:00,23.0,19.7,30.03,NW,310,1.0,14.0,87,0.00,,,0.00,WeatherCatV1.10B1784,2013-02-11 15:24:00,
2013-02-11 09:29:00,23.1,19.8,30.03,NNW,336,7.0,10.0,87,0.00,,,0.00,WeatherCatV1.10B1784,2013-02-11 15:29:00,
2013-02-11 09:34:00,23.1,19.8,30.04,WNW,282,6.0,10.0,87,0.00,,,0.00,WeatherCatV1.10B1784,2013-02-11 15:34:00,
2013-02-11 09:39:00,23.2,19.6,30.04,North,351,5.0,11.0,86,0.00,,,0.00,WeatherCatV1.10B1784,2013-02-11 15:39:00,
2013-02-11 09:44:00,23.4,19.8,30.04,WNW,286,5.0,8.0,86,0.00,,,0.00,WeatherCatV1.10B1784,2013-02-11 15:44:00,
2013-02-11 09:49:00,23.3,19.5,30.04,WNW,296,6.0,11.0,85,0.00,,,0.00,WeatherCatV1.10B1784,2013-02-11 15:49:00,
2013-02-11 09:54:00,23.3,19.5,30.05,NW,315,7.0,9.0,85,0.00,,,0.00,WeatherCatV1.10B1784,2013-02-11 15:54:00,
2013-02-11 09:59:00,23.3,19.5,30.05,West,272,4.0,11.0,85,0.00,,,0.00,WeatherCatV1.10B1784,2013-02-11 15:59:00,
2013-02-11 10:04:00,23.4,19.8,30.05,NNW,336,10.0,12.0,86,0.00,,,0.00,WeatherCatV1.10B1784,2013-02-11 16:04:00,
2013-02-11 10:09:00,23.4,19.8,30.05,WNW,297,5.0,14.0,86,0.00,,,0.00,WeatherCatV1.10B1784,2013-02-11 16:09:00,
2013-02-11 10:14:00,23.6,20.0,30.06,NW,308,7.0,11.0,86,0.00,,,0.00,WeatherCatV1.10B1784,2013-02-11 16:14:00,
2013-02-11 10:19:00,23.6,20.0,30.06,WNW,294,4.0,10.0,86,0.00,,,0.00,WeatherCatV1.10B1784,2013-02-11 16:19:00,
2013-02-11 10:24:00,23.8,20.2,30.06,WNW,291,6.0,16.0,86,0.00,,,0.00,WeatherCatV1.10B1784,2013-02-11 16:24:00,
2013-02-11 10:29:00,23.7,20.1,30.07,WNW,303,7.0,16.0,86,0.00,,,0.00,WeatherCatV1.10B1784,2013-02-11 16:29:00,
2013-02-11 10:34:00,23.7,20.1,30.07,WNW,288,2.0,10.0,86,0.00,,,0.00,WeatherCatV1.10B1784,2013-02-11 16:34:00,
2013-02-11 10:39:00,23.8,20.2,30.07,NW,305,8.0,11.0,86,0.00,,,0.00,WeatherCatV1.10B1784,2013-02-11 16:39:00,
2013-02-11 10:44:00,23.8,20.2,30.07,WNW,291,3.0,9.0,86,0.00,,,0.00,WeatherCatV1.10B1784,2013-02-11 16:44:00,
2013-02-11 10:49:00,23.9,20.3,30.07,NW,316,4.0,10.0,86,0.00,,,0.00,WeatherCatV1.10B1784,2013-02-11 16:49:00,
2013-02-11 10:54:00,24.1,20.5,30.08,WNW,293,6.0,10.0,86,0.00,,,0.00,WeatherCatV1.10B1784,2013-02-11 16:54:00,
2013-02-11 10:59:00,24.2,20.4,30.08,West,276,2.0,9.0,85,0.00,,,0.00,WeatherCatV1.10B1784,2013-02-11 16:59:00,
2013-02-11 11:04:00,24.3,20.5,30.08,WNW,297,4.0,6.0,85,0.00,,,0.00,WeatherCatV1.10B1784,2013-02-11 17:04:00,
2013-02-11 11:09:00,24.2,20.1,30.08,WNW,289,5.0,10.0,84,0.00,,,0.00,WeatherCatV1.10B1784,2013-02-11 17:09:00,
2013-02-11 11:14:00,24.1,20.3,30.08,West,275,5.0,8.0,85,0.00,,,0.00,WeatherCatV1.10B1784,2013-02-11 17:14:00,
2013-02-11 11:19:00,24.0,19.9,30.08,NNW,334,4.0,13.0,84,0.00,,,0.00,WeatherCatV1.10B1784,2013-02-11 17:19:00,
2013-02-11 11:24:00,24.0,20.2,30.08,WNW,285,6.0,16.0,85,0.00,,,0.00,WeatherCatV1.10B1784,2013-02-11 17:24:00,
2013-02-11 11:29:00,24.1,20.0,30.08,WNW,299,10.0,13.0,84,0.00,,,0.00,WeatherCatV1.10B1784,2013-02-11 17:29:00,
2013-02-11 11:34:00,24.3,19.9,30.09,NW,318,7.0,16.0,83,0.00,,,0.00,WeatherCatV1.10B1784,2013-02-11 17:34:00,
2013-02-11 11:39:00,24.1,19.7,30.09,North,0,2.0,11.0,83,0.00,,,0.00,WeatherCatV1.10B1784,2013-02-11 17:39:00,
2013-02-11 11:44:00,23.9,19.5,30.09,NW,305,3.0,13.0,83,0.00,,,0.00,WeatherCatV1.10B1784,2013-02-11 17:44:00,
2013-02-11 11:49:00,23.8,19.7,30.09,WNW,300,6.0,14.0,84,0.00,,,0.00,WeatherCatV1.10B1784,2013-02-11 17:49:00,
2013-02-11 11:54:00,23.9,19.8,30.09,West,275,6.0,16.0,84,0.00,,,0.00,WeatherCatV1.10B1784,2013-02-11 17:54:00,
2013-02-11 11:59:00,23.8,19.7,30.09,NW,325,4.0,13.0,84,0.00,,,0.00,WeatherCatV1.10B1784,2013-02-11 17:59:00,
2013-02-11 12:04:00,23.8,19.7,30.10,West,280,2.0,11.0,84,0.00,,,0.00,WeatherCatV1.10B1784,2013-02-11 18:04:00,
2013-02-11 12:09:00,23.8,19.4,30.10,West,268,10.0,16.0,83,0.00,,,0.00,WeatherCatV1.10B1784,2013-02-11 18:09:00,
2013-02-11 12:14:00,23.8,19.7,30.09,NW,306,5.0,10.0,84,0.00,,,0.00,WeatherCatV1.10B1784,2013-02-11 18:14:00,
2013-02-11 12:19:00,24.0,19.6,30.09,WNW,299,3.0,8.0,83,0.00,,,0.00,WeatherCatV1.10B1784,2013-02-11 18:19:00,
2013-02-11 12:24:00,24.0,19.6,30.10,WNW,287,4.0,8.0,83,0.00,,,0.00,WeatherCatV1.10B1784,2013-02-11 18:24:00,
2013-02-11 12:29:00,24.0,19.6,30.09,NW,311,8.0,12.0,83,0.00,,,0.00,WeatherCatV1.10B1784,2013-02-11 18:29:00,
2013-02-11 12:34:00,24.0,19.6,30.09,NW,309,7.0,12.0,83,0.00,,,0.00,WeatherCatV1.10B1784,2013-02-11 18:34:00,
2013-02-11 12:39:00,24.0,19.6,30.09,West,270,8.0,9.0,83,0.00,,,0.00,WeatherCatV1.10B1784,2013-02-11 18:39:00,
2013-02-11 12:44:00,24.2,20.1,30.09,NW,309,6.0,11.0,84,0.00,,,0.00,WeatherCatV1.10B1784,2013-02-11 18:44:00,
2013-02-11 12:49:00,24.1,19.7,30.10,West,270,3.0,11.0,83,0.00,,,0.00,WeatherCatV1.10B1784,2013-02-11 18:49:00,
2013-02-11 12:54:00,24.2,20.1,30.09,NW,306,3.0,12.0,84,0.00,,,0.00,WeatherCatV1.10B1784,2013-02-11 18:54:00,
2013-02-11 12:59:00,24.2,19.8,30.09,NW,313,4.0,9.0,83,0.00,,,0.00,WeatherCatV1.10B1784,2013-02-11 18:59:00,
2013-02-11 13:04:00,24.0,19.6,30.09,North,349,4.0,10.0,83,0.00,,,0.00,WeatherCatV1.10B1784,2013-02-11 19:04:00,
2013-02-11 13:09:00,23.9,19.8,30.09,WNW,301,7.0,7.0,84,0.00,,,0.00,WeatherCatV1.10B1784,2013-02-11 19:09:00,
2013-02-11 13:14:00,24.0,19.6,30.10,WNW,301,6.0,11.0,83,0.00,,,0.00,WeatherCatV1.10B1784,2013-02-11 19:14:00,
2013-02-11 13:19:00,23.9,19.5,30.09,West,268,10.0,12.0,83,0.00,,,0.00,WeatherCatV1.10B1784,2013-02-11 19:19:00,
2013-02-11 13:24:00,23.8,19.7,30.10,WNW,293,3.0,12.0,84,0.00,,,0.00,WeatherCatV1.10B1784,2013-02-11 19:24:00,
2013-02-11 13:29:00,24.0,19.9,30.10,West,279,1.0,9.0,84,0.00,,,0.00,WeatherCatV1.10B1784,2013-02-11 19:29:00,
2013-02-11 13:34:00,24.0,19.9,30.10,West,277,4.0,13.0,84,0.00,,,0.00,WeatherCatV1.10B1784,2013-02-11 19:34:00,
2013-02-11 13:39:00,23.8,19.7,30.10,WNW,291,4.0,15.0,84,0.00,,,0.00,WeatherCatV1.10B1784,2013-02-11 19:39:00,
2013-02-11 13:44:00,23.7,19.6,30.10,NW,307,5.0,13.0,84,0.00,,,0.00,WeatherCatV1.10B1784,2013-02-11 19:44:00,
2013-02-11 13:49:00,23.7,19.9,30.10,NW,320,4.0,10.0,85,0.00,,,0.00,WeatherCatV1.10B1784,2013-02-11 19:49:00,
2013-02-11 13:54:00,23.7,19.6,30.10,WNW,303,8.0,9.0,84,0.00,,,0.00,WeatherCatV1.10B1784,2013-02-11 19:54:00,
2013-02-11 13:59:00,23.7,19.9,30.09,WNW,286,9.0,9.0,85,0.00,,,0.00,WeatherCatV1.10B1784,2013-02-11 19:59:00,
2013-02-11 14:05:00,23.7,19.9,30.10,West,278,5.0,9.0,85,0.00,,,0.00,WeatherCatV1.10B1784,2013-02-11 20:05:00,
2013-02-11 14:10:00,23.7,19.9,30.10,NW,312,7.0,12.0,85,0.00,,,0.00,WeatherCatV1.10B1784,2013-02-11 20:10:00,
2013-02-11 14:15:00,23.7,19.9,30.10,West,281,6.0,10.0,85,0.00,,,0.00,WeatherCatV1.10B1784,2013-02-11 20:15:00,
2013-02-11 14:20:00,23.7,19.9,30.10,WNW,301,4.0,10.0,85,0.00,,,0.00,WeatherCatV1.10B1784,2013-02-11 20:20:00,
2013-02-11 14:25:00,23.6,19.8,30.10,West,276,3.0,9.0,85,0.00,,,0.00,WeatherCatV1.10B1784,2013-02-11 20:25:00,
2013-02-11 14:30:00,23.6,19.8,30.10,NW,314,10.0,13.0,85,0.00,,,0.00,WeatherCatV1.10B1784,2013-02-11 20:30:00,
2013-02-11 14:35:00,23.5,19.7,30.11,NW,322,4.0,9.0,85,0.00,,,0.00,WeatherCatV1.10B1784,2013-02-11 20:35:00,
2013-02-11 14:40:00,23.6,19.8,30.11,West,263,2.0,10.0,85,0.00,,,0.00,WeatherCatV1.10B1784,2013-02-11 20:40:00,
2013-02-11 14:45:00,23.6,19.8,30.11,North,5,9.0,10.0,85,0.00,,,0.00,WeatherCatV1.10B1784,2013-02-11 20:45:00,
2013-02-11 14:50:00,23.6,19.8,30.10,North,0,3.0,7.0,85,0.00,,,0.00,WeatherCatV1.10B1784,2013-02-11 20:50:00,
2013-02-11 14:55:00,23.7,19.9,30.11,NW,309,6.0,9.0,85,0.00,,,0.00,WeatherCatV1.10B1784,2013-02-11 20:55:00,
2013-02-11 15:00:00,23.6,19.8,30.11,WNW,299,5.0,13.0,85,0.00,,,0.00,WeatherCatV1.10B1784,2013-02-11 21:00:00,
2013-02-11 15:05:00,23.7,19.9,30.11,WNW,282,6.0,6.0,85,0.00,,,0.00,WeatherCatV1.10B1784,2013-02-11 21:05:00,
2013-02-11 15:10:00,23.7,20.1,30.11,West,273,2.0,10.0,86,0.00,,,0.00,WeatherCatV1.10B1784,2013-02-11 21:10:00,
2013-02-11 15:15:00,23.6,19.8,30.11,West,275,8.0,10.0,85,0.00,,,0.00,WeatherCatV1.10B1784,2013-02-11 21:15:00,
2013-02-11 15:20:00,23.7,20.1,30.11,WNW,291,3.0,4.0,86,0.00,,,0.00,WeatherCatV1.10B1784,2013-02-11 21:20:00,
2013-02-11 15:25:00,23.7,19.9,30.11,NW,318,3.0,7.0,85,0.00,,,0.00,WeatherCatV1.10B1784,2013-02-11 21:25:00,
2013-02-11 15:30:00,23.7,19.9,30.11,NW,309,6.0,10.0,85,0.00,,,0.00,WeatherCatV1.10B1784,2013-02-11 21:30:00,
2013-02-11 15:35:00,23.6,19.8,30.11,WNW,296,6.0,9.0,85,0.00,,,0.00,WeatherCatV1.10B1784,2013-02-11 21:35:00,
2013-02-11 15:40:00,23.6,19.5,30.11,West,278,6.0,8.0,84,0.00,,,0.00,WeatherCatV1.10B1784,2013-02-11 21:40:00,
2013-02-11 15:45:00,23.8,19.7,30.11,WNW,289,5.0,6.0,84,0.00,,,0.00,WeatherCatV1.10B1784,2013-02-11 21:45:00,
2013-02-11 15:50:00,23.8,19.7,30.11,NNW,332,6.0,7.0,84,0.00,,,0.00,WeatherCatV1.10B1784,2013-02-11 21:50:00,
2013-02-11 15:55:00,23.8,19.4,30.11,West,271,3.0,9.0,83,0.00,,,0.00,WeatherCatV1.10B1784,2013-02-11 21:55:00,
2013-02-11 16:00:00,23.9,19.5,30.11,North,351,3.0,8.0,83,0.00,,,0.00,WeatherCatV1.10B1784,2013-02-11 22:00:00,
2013-02-11 16:05:00,23.8,19.1,30.11,West,273,4.0,10.0,82,0.00,,,0.00,WeatherCatV1.10B1784,2013-02-11 22:05:00,
2013-02-11 16:10:00,23.8,19.1,30.11,WNW,286,4.0,8.0,82,0.00,,,0.00,WeatherCatV1.10B1784,2013-02-11 22:10:00,
2013-02-11 16:15:00,23.8,19.4,30.11,NW,308,3.0,6.0,83,0.00,,,0.00,WeatherCatV1.10B1784,2013-02-11 22:15:00,
2013-02-11 16:20:00,23.8,19.4,30.11,NW,315,5.0,12.0,83,0.00,,,0.00,WeatherCatV1.10B1784,2013-02-11 22:20:00,
2013-02-11 16:25:00,23.8,19.4,30.11,WNW,298,5.0,6.0,83,0.00,,,0.00,WeatherCatV1.10B1784,2013-02-11 22:25:00,
2013-02-11 16:30:00,23.8,19.4,30.12,WNW,302,3.0,5.0,83,0.00,,,0.00,WeatherCatV1.10B1784,2013-02-11 22:30:00,
2013-02-11 16:35:00,23.8,19.4,30.12,NNW,333,4.0,8.0,83,0.00,,,0.00,WeatherCatV1.10B1784,2013-02-11 22:35:00,
2013-02-11 16:40:00,23.8,19.4,30.12,WNW,284,5.0,10.0,83,0.00,,,0.00,WeatherCatV1.10B1784,2013-02-11 22:40:00,
2013-02-11 16:45:00,23.8,19.7,30.12,SW,226,3.0,4.0,84,0.00,,,0.00,WeatherCatV1.10B1784,2013-02-11 22:45:00,
2013-02-11 16:50:00,23.8,19.7,30.12,WNW,284,2.0,4.0,84,0.00,,,0.00,WeatherCatV1.10B1784,2013-02-11 22:50:00,
2013-02-11 16:55:00,23.8,19.7,30.12,WNW,284,5.0,5.0,84,0.00,,,0.00,WeatherCatV1.10B1784,2013-02-11 22:55:00,
2013-02-11 17:00:00,23.6,19.5,30.13,NW,309,4.0,7.0,84,0.00,,,0.00,WeatherCatV1.10B1784,2013-02-11 23:00:00,
2013-02-11 17:05:00,23.4,19.3,30.13,West,276,0.0,5.0,84,0.00,,,0.00,WeatherCatV1.10B1784,2013-02-11 23:05:00,
2013-02-11 17:10:00,23.2,19.1,30.13,WNW,292,2.0,4.0,84,0.00,,,0.00,WeatherCatV1.10B1784,2013-02-11 23:10:00,
2013-02-11 17:15:00,23.1,19.0,30.12,WNW,292,3.0,6.0,84,0.00,,,0.00,WeatherCatV1.10B1784,2013-02-11 23:15:00,
2013-02-11 17:20:00,23.1,19.3,30.13,WNW,287,2.0,2.0,85,0.00,,,0.00,WeatherCatV1.10B1784,2013-02-11 23:20:00,
2013-02-11 17:25:00,23.0,19.2,30.12,WNW,285,2.0,4.0,85,0.00,,,0.00,WeatherCatV1.10B1784,2013-02-11 23:25:00,
2013-02-11 17:30:00,23.0,19.2,30.12,NNW,330,5.0,5.0,85,0.00,,,0.00,WeatherCatV1.10B1784,2013-02-11 23:30:00,
2013-02-11 17:35:00,22.9,19.1,30.12,West,278,2.0,6.0,85,0.00,,,0.00,WeatherCatV1.10B1784,2013-02-11 23:35:00,
2013-02-11 17:40:00,23.0,19.2,30.12,WNW,285,3.0,4.0,85,0.00,,,0.00,WeatherCatV1.10B1784,2013-02-11 23:40:00,
2013-02-11 17:45:00,23.0,19.5,30.12,West,275,2.0,5.0,86,0.00,,,0.00,WeatherCatV1.10B1784,2013-02-11 23:45:00,
2013-02-11 17:50:00,22.9,19.1,30.12,WNW,283,3.0,3.0,85,0.00,,,0.00,WeatherCatV1.10B1784,2013-02-11 23:50:00,
2013-02-11 17:55:00,22.9,19.1,30.12,West,266,2.0,4.0,85,0.00,,,0.00,WeatherCatV1.10B1784,2013-02-11 23:55:00,
2013-02-11 18:00:00,22.8,19.0,30.12,NW,310,2.0,4.0,85,0.00,,,0.00,WeatherCatV1.10B1784,2013-02-12 00:00:00,
2013-02-11 18:05:00,22.7,18.9,30.12,WNW,303,2.0,5.0,85,0.00,,,0.00,WeatherCatV1.10B1784,2013-02-12 00:05:00,
2013-02-11 18:10:00,22.6,18.8,30.12,West,263,1.0,3.0,85,0.00,,,0.00,WeatherCatV1.10B1784,2013-02-12 00:10:00,
2013-02-11 18:15:00,22.6,19.1,30.12,NW,305,2.0,6.0,86,0.00,,,0.00,WeatherCatV1.10B1784,2013-02-12 00:15:00,
2013-02-11 18:20:00,22.5,18.7,30.12,NW,316,1.0,4.0,85,0.00,,,0.00,WeatherCatV1.10B1784,2013-02-12 00:20:00,
2013-02-11 18:25:00,22.5,19.0,30.12,WNW,293,1.0,3.0,86,0.00,,,0.00,WeatherCatV1.10B1784,2013-02-12 00:25:00,
2013-02-11 18:30:00,22.6,19.1,30.12,WNW,295,3.0,4.0,86,0.00,,,0.00,WeatherCatV1.10B1784,2013-02-12 00:30:00,
2013-02-11 18:35:00,22.5,19.0,30.12,WNW,283,1.0,4.0,86,0.00,,,0.00,WeatherCatV1.10B1784,2013-02-12 00:35:00,
2013-02-11 18:40:00,22.5,19.2,30.12,West,265,2.0,5.0,87,0.00,,,0.00,WeatherCatV1.10B1784,2013-02-12 00:40:00,
2013-02-11 18:45:00,22.4,18.9,30.12,WNW,288,4.0,6.0,86,0.00,,,0.00,WeatherCatV1.10B1784,2013-02-12 00:45:00,
2013-02-11 18:50:00,22.4,19.1,30.12,WNW,288,2.0,2.0,87,0.00,,,0.00,WeatherCatV1.10B1784,2013-02-12 00:50:00,
2013-02-11 18:55:00,22.4,19.1,30.13,WNW,287,0.0,1.0,87,0.00,,,0.00,WeatherCatV1.10B1784,2013-02-12 00:55:00,
2013-02-11 19:00:00,22.4,19.1,30.12,West,263,1.0,2.0,87,0.00,,,0.00,WeatherCatV1.10B1784,2013-02-12 01:00:00,
2013-02-11 19:05:00,22.4,19.1,30.13,West,275,0.0,4.0,87,0.00,,,0.00,WeatherCatV1.10B1784,2013-02-12 01:05:00,
2013-02-11 19:10:00,22.5,19.2,30.12,West,275,2.0,3.0,87,0.00,,,0.00,WeatherCatV1.10B1784,2013-02-12 01:10:00,
2013-02-11 19:15:00,22.5,19.2,30.13,West,274,0.0,3.0,87,0.00,,,0.00,WeatherCatV1.10B1784,2013-02-12 01:15:00,
2013-02-11 19:20:00,22.5,19.5,30.13,West,276,0.0,1.0,88,0.00,,,0.00,WeatherCatV1.10B1784,2013-02-12 01:20:00,
2013-02-11 19:25:00,22.6,19.6,30.13,West,276,0.0,3.0,88,0.00,,,0.00,WeatherCatV1.10B1784,2013-02-12 01:25:00,
2013-02-11 19:30:00,22.6,19.6,30.13,West,276,0.0,4.0,88,0.00,,,0.00,WeatherCatV1.10B1784,2013-02-12 01:30:00,
2013-02-11 19:35:00,22.6,19.6,30.13,West,276,0.0,1.0,88,0.00,,,0.00,WeatherCatV1.10B1784,2013-02-12 01:35:00,
2013-02-11 19:40:00,22.6,19.6,30.12,West,276,1.0,2.0,88,0.00,,,0.00,WeatherCatV1.10B1784,2013-02-12 01:40:00,
2013-02-11 19:45:00,22.6,19.9,30.13,West,276,0.0,1.0,89,0.00,,,0.00,WeatherCatV1.10B1784,2013-02-12 01:45:00,
2013-02-11 19:50:00,22.7,20.0,30.13,West,276,0.0,0.0,89,0.00,,,0.00,WeatherCatV1.10B1784,2013-02-12 01:50:00,
2013-02-11 19:55:00,22.7,20.0,30.12,West,276,0.0,1.0,89,0.00,,,0.00,WeatherCatV1.10B1784,2013-02-12 01:55:00,
2013-02-11 20:00:00,22.7,20.0,30.12,West,276,0.0,1.0,89,0.00,,,0.00,WeatherCatV1.10B1784,2013-02-12 02:00:00,
2013-02-11 20:05:00,22.8,20.1,30.12,West,276,0.0,0.0,89,0.00,,,0.00,WeatherCatV1.10B1784,2013-02-12 02:05:00,
2013-02-11 20:10:00,22.9,20.2,30.12,West,276,0.0,1.0,89,0.00,,,0.00,WeatherCatV1.10B1784,2013-02-12 02:10:00,
2013-02-11 20:15:00,22.9,20.2,30.12,West,276,0.0,1.0,89,0.00,,,0.00,WeatherCatV1.10B1784,2013-02-12 02:15:00,
2013-02-11 20:20:00,22.9,20.2,30.12,West,276,0.0,1.0,89,0.00,,,0.00,WeatherCatV1.10B1784,2013-02-12 02:20:00,
2013-02-11 20:25:00,23.0,20.3,30.12,West,276,1.0,1.0,89,0.00,,,0.00,WeatherCatV1.10B1784,2013-02-12 02:25:00,
2013-02-11 20:30:00,23.0,20.3,30.12,West,276,0.0,2.0,89,0.00,,,0.00,WeatherCatV1.10B1784,2013-02-12 02:30:00,
2013-02-11 20:35:00,23.1,20.4,30.12,West,276,0.0,1.0,89,0.00,,,0.00,WeatherCatV1.10B1784,2013-02-12 02:35:00,
2013-02-11 20:40:00,23.1,20.4,30.12,West,276,0.0,1.0,89,0.00,,,0.00,WeatherCatV1.10B1784,2013-02-12 02:40:00,
2013-02-11 20:45:00,23.1,20.4,30.11,West,276,0.0,0.0,89,0.00,,,0.00,WeatherCatV1.10B1784,2013-02-12 02:45:00,
2013-02-11 20:50:00,23.1,20.4,30.12,West,276,0.0,0.0,89,0.00,,,0.00,WeatherCatV1.10B1784,2013-02-12 02:50:00,
2013-02-11 20:55:00,23.2,20.4,30.11,West,276,0.0,0.0,89,0.00,,,0.00,WeatherCatV1.10B1784,2013-02-12 02:55:00,
2013-02-11 21:00:00,23.2,20.4,30.11,West,276,0.0,0.0,89,0.00,,,0.00,WeatherCatV1.10B1784,2013-02-12 03:00:00,
2013-02-11 21:05:00,23.2,20.7,30.11,West,276,0.0,0.0,90,0.00,,,0.00,WeatherCatV1.10B1784,2013-02-12 03:05:00,
2013-02-11 21:10:00,23.3,20.8,30.11,West,276,0.0,1.0,90,0.00,,,0.00,WeatherCatV1.10B1784,2013-02-12 03:10:00,
2013-02-11 21:15:00,23.3,20.8,30.11,West,276,0.0,0.0,90,0.00,,,0.00,WeatherCatV1.10B1784,2013-02-12 03:15:00,
2013-02-11 21:20:00,23.4,20.9,30.11,West,276,0.0,0.0,90,0.00,,,0.00,WeatherCatV1.10B1784,2013-02-12 03:20:00,
2013-02-11 21:25:00,23.4,20.9,30.11,West,276,0.0,0.0,90,0.00,,,0.00,WeatherCatV1.10B1784,2013-02-12 03:25:00,
2013-02-11 21:30:00,23.4,20.9,30.11,West,276,0.0,0.0,90,0.00,,,0.00,WeatherCatV1.10B1784,2013-02-12 03:30:00,
2013-02-11 21:35:00,23.4,20.9,30.11,West,276,0.0,0.0,90,0.00,,,0.00,WeatherCatV1.10B1784,2013-02-12 03:35:00,
2013-02-11 21:40:00,23.5,21.0,30.12,West,276,0.0,0.0,90,0.00,,,0.00,WeatherCatV1.10B1784,2013-02-12 03:40:00,
2013-02-11 21:45:00,23.5,21.0,30.11,West,276,0.0,0.0,90,0.00,,,0.00,WeatherCatV1.10B1784,2013-02-12 03:45:00,
2013-02-11 21:50:00,23.6,21.1,30.12,West,276,0.0,1.0,90,0.00,,,0.00,WeatherCatV1.10B1784,2013-02-12 03:50:00,
2013-02-11 21:55:00,23.6,21.1,30.11,West,276,2.0,2.0,90,0.00,,,0.00,WeatherCatV1.10B1784,2013-02-12 03:55:00,
2013-02-11 22:00:00,23.7,21.2,30.12,West,276,0.0,0.0,90,0.00,,,0.00,WeatherCatV1.10B1784,2013-02-12 04:00:00,
2013-02-11 22:05:00,23.7,20.9,30.12,West,276,0.0,0.0,89,0.00,,,0.00,WeatherCatV1.10B1784,2013-02-12 04:05:00,
2013-02-11 22:10:00,23.8,21.0,30.12,West,276,0.0,0.0,89,0.00,,,0.00,WeatherCatV1.10B1784,2013-02-12 04:10:00,
2013-02-11 22:15:00,23.8,21.0,30.11,West,276,0.0,1.0,89,0.00,,,0.00,WeatherCatV1.10B1784,2013-02-12 04:15:00,
2013-02-11 22:20:00,23.8,21.0,30.11,West,276,0.0,1.0,89,0.00,,,0.00,WeatherCatV1.10B1784,2013-02-12 04:20:00,
2013-02-11 22:25:00,23.8,21.0,30.11,West,276,0.0,0.0,89,0.00,,,0.00,WeatherCatV1.10B1784,2013-02-12 04:25:00,
2013-02-11 22:30:00,23.7,20.9,30.11,West,276,0.0,1.0,89,0.00,,,0.00,WeatherCatV1.10B1784,2013-02-12 04:30:00,
2013-02-11 22:35:00,23.6,20.8,30.11,West,276,0.0,0.0,89,0.00,,,0.00,WeatherCatV1.10B1784,2013-02-12 04:35:00,
2013-02-11 22:40:00,23.6,20.8,30.11,West,276,0.0,0.0,89,0.00,,,0.00,WeatherCatV1.10B1784,2013-02-12 04:40:00,
2013-02-11 22:45:00,23.5,20.7,30.12,West,276,0.0,0.0,89,0.00,,,0.00,WeatherCatV1.10B1784,2013-02-12 04:45:00,
2013-02-11 22:50:00,23.4,20.6,30.12,West,276,0.0,1.0,89,0.00,,,0.00,WeatherCatV1.10B1784,2013-02-12 04:50:00,
2013-02-11 22:55:00,23.4,20.6,30.12,West,276,0.0,1.0,89,0.00,,,0.00,WeatherCatV1.10B1784,2013-02-12 04:55:00,
2013-02-11 23:00:00,23.3,20.5,30.12,South,171,2.0,2.0,89,0.00,,,0.00,WeatherCatV1.10B1784,2013-02-12 05:00:00,
2013-02-11 23:05:00,23.3,20.5,30.12,South,175,0.0,2.0,89,0.00,,,0.00,WeatherCatV1.10B1784,2013-02-12 05:05:00,
2013-02-11 23:10:00,23.3,20.5,30.12,South,175,0.0,0.0,89,0.00,,,0.00,WeatherCatV1.10B1784,2013-02-12 05:10:00,
2013-02-11 23:15:00,23.2,20.2,30.12,South,175,1.0,1.0,88,0.00,,,0.00,WeatherCatV1.10B1784,2013-02-12 05:15:00,
2013-02-11 23:16:00,23.2,20.2,30.12,South,175,0.0,2.0,88,0.00,,,0.00,WeatherCatV1.10B1784,2013-02-12 05:16:00,
2013-02-11 23:21:00,23.1,20.1,30.12,South,175,0.0,1.0,88,0.00,,,0.00,WeatherCatV1.10B1784,2013-02-12 05:21:00,
2013-02-11 23:26:00,23.0,20.0,30.12,South,175,0.0,0.0,88,0.00,,,0.00,WeatherCatV1.10B1784,2013-02-12 05:26:00,
2013-02-11 23:31:00,22.9,19.9,30.12,South,175,0.0,2.0,88,0.00,,,0.00,WeatherCatV1.10B1784,2013-02-12 05:31:00,
2013-02-11 23:36:00,22.8,19.8,30.12,South,175,0.0,2.0,88,0.00,,,0.00,WeatherCatV1.10B1784,2013-02-12 05:36:00,
2013-02-11 23:41:00,22.7,19.7,30.12,South,175,1.0,1.0,88,0.00,,,0.00,WeatherCatV1.10B1784,2013-02-12 05:41:00,
2013-02-11 23:46:00,22.6,19.6,30.12,South,175,0.0,1.0,88,0.00,,,0.00,WeatherCatV1.10B1784,2013-02-12 05:46:00,
2013-02-11 23:51:00,22.5,19.5,30.12,South,175,2.0,2.0,88,0.00,,,0.00,WeatherCatV1.10B1784,2013-02-12 05:51:00,
2013-02-11 23:56:00,22.4,19.4,30.12,South,175,0.0,4.0,88,0.00,,,0.00,WeatherCatV1.10B1784,2013-02-12 05:56:00,